Time,TemperatureF,DewpointF,PressureIn,WindDirection,WindDirectionDegrees,WindSpeedMPH,WindSpeedGustMPH,Humidity,HourlyPrecipIn,Conditions,Clouds,dailyrainin,SoftwareType,DateUTC
2013-04-16 00:02:00,49.0,47.0,-100.00,NE,35,21.0,25.0,93,-99.99,,,-99.99,,2013-04-16 05:02:00,
2013-04-16 00:12:00,48.0,46.0,-100.00,NE,40,19.0,24.0,93,-99.99,,,-99.99,,2013-04-16 05:12:00,
2013-04-16 00:22:00,48.0,46.0,-100.00,NE,40,19.0,24.0,93,-99.99,,,-99.99,,2013-04-16 05:22:00,
2013-04-16 00:42:00,48.0,45.0,-100.00,ENE,70,18.0,21.0,90,-99.99,,,-99.99,,2013-04-16 05:42:00,
2013-04-16 00:52:00,48.0,45.0,-100.00,ENE,70,18.0,21.0,90,-99.99,,,-99.99,,2013-04-16 05:52:00,
2013-04-16 01:02:00,48.0,44.0,-100.00,North,350,17.0,21.0,86,-99.99,,,-99.99,,2013-04-16 06:02:00,
2013-04-16 01:12:00,48.0,42.0,-100.00,NNE,25,14.0,14.0,81,-99.99,,,-99.99,,2013-04-16 06:12:00,
2013-04-16 01:22:00,48.0,45.0,-100.00,North,10,18.0,23.0,88,-99.99,,,-99.99,,2013-04-16 06:22:00,
2013-04-16 01:32:00,48.0,45.0,-100.00,North,10,18.0,23.0,88,-99.99,,,-99.99,,2013-04-16 06:32:00,
2013-04-16 01:42:00,48.0,45.0,-100.00,North,10,18.0,23.0,88,-99.99,,,-99.99,,2013-04-16 06:42:00,
2013-04-16 01:52:00,47.0,45.0,-100.00,North,10,16.0,21.0,93,-99.99,,,-99.99,,2013-04-16 06:52:00,
2013-04-16 02:02:00,47.0,45.0,-100.00,North,10,16.0,21.0,93,-99.99,,,-99.99,,2013-04-16 07:02:00,
2013-04-16 02:12:00,47.0,45.0,-100.00,NNW,335,14.0,18.0,93,-99.99,,,-99.99,,2013-04-16 07:12:00,
2013-04-16 02:22:00,47.0,45.0,-100.00,NNE,25,9.0,12.0,93,-99.99,,,-99.99,,2013-04-16 07:22:00,
2013-04-16 02:32:00,47.0,45.0,-100.00,NNE,25,9.0,12.0,93,-99.99,,,-99.99,,2013-04-16 07:32:00,
2013-04-16 02:42:00,47.0,45.0,-100.00,NNE,25,9.0,12.0,93,-99.99,,,-99.99,,2013-04-16 07:42:00,
2013-04-16 02:53:00,47.0,45.0,-100.00,North,10,12.0,16.0,93,-99.99,,,-99.99,,2013-04-16 07:53:00,
2013-04-16 03:22:00,46.0,44.0,-100.00,NNE,30,12.0,14.0,94,-99.99,,,-99.99,,2013-04-16 08:22:00,
2013-04-16 03:32:00,46.0,44.0,-100.00,NNE,30,12.0,14.0,94,-99.99,,,-99.99,,2013-04-16 08:32:00,
2013-04-16 03:42:00,46.0,44.0,-100.00,NNE,30,12.0,14.0,94,-99.99,,,-99.99,,2013-04-16 08:42:00,
2013-04-16 04:02:00,45.0,43.0,-100.00,NE,45,14.0,16.0,94,-99.99,,,-99.99,,2013-04-16 09:02:00,
2013-04-16 04:12:00,45.0,43.0,-100.00,NE,35,14.0,17.0,94,-99.99,,,-99.99,,2013-04-16 09:12:00,
2013-04-16 04:22:00,45.0,43.0,-100.00,NE,35,14.0,17.0,94,-99.99,,,-99.99,,2013-04-16 09:22:00,
2013-04-16 04:43:00,45.0,43.0,-100.00,NNE,30,14.0,16.0,94,-99.99,,,-99.99,,2013-04-16 09:43:00,
2013-04-16 04:53:00,45.0,43.0,-100.00,NNW,340,16.0,21.0,94,-99.99,,,-99.99,,2013-04-16 09:53:00,
2013-04-16 05:03:00,45.0,43.0,-100.00,NNW,340,16.0,21.0,94,-99.99,,,-99.99,,2013-04-16 10:03:00,
2013-04-16 05:13:00,45.0,43.0,-100.00,NNW,345,10.0,12.0,94,-99.99,,,-99.99,,2013-04-16 10:13:00,
2013-04-16 05:23:00,45.0,43.0,-100.00,NNE,25,11.0,12.0,94,-99.99,,,-99.99,,2013-04-16 10:23:00,
2013-04-16 05:33:00,45.0,43.0,-100.00,NNE,25,11.0,12.0,94,-99.99,,,-99.99,,2013-04-16 10:33:00,
2013-04-16 05:42:00,45.0,43.0,-100.00,North,5,11.0,14.0,94,-99.99,,,-99.99,,2013-04-16 10:42:00,
2013-04-16 05:53:00,45.0,43.0,-100.00,North,5,10.0,11.0,94,-99.99,,,-99.99,,2013-04-16 10:53:00,
2013-04-16 06:02:00,45.0,43.0,-100.00,North,5,10.0,11.0,94,-99.99,,,-99.99,,2013-04-16 11:02:00,
2013-04-16 06:12:00,45.0,43.0,-100.00,North,5,14.0,17.0,94,-99.99,,,-99.99,,2013-04-16 11:12:00,
2013-04-16 06:22:00,44.0,42.0,-100.00,North,5,17.0,19.0,94,-99.99,,,-99.99,,2013-04-16 11:22:00,
2013-04-16 06:32:00,44.0,42.0,-100.00,North,5,17.0,19.0,94,-99.99,,,-99.99,,2013-04-16 11:32:00,
2013-04-16 06:42:00,44.0,42.0,-100.00,NNE,30,16.0,18.0,94,-99.99,,,-99.99,,2013-04-16 11:42:00,
2013-04-16 06:53:00,44.0,42.0,-100.00,NNE,15,11.0,14.0,93,-99.99,,,-99.99,,2013-04-16 11:53:00,
2013-04-16 07:02:00,44.0,42.0,-100.00,NNE,15,11.0,14.0,93,-99.99,,,-99.99,,2013-04-16 12:02:00,
2013-04-16 07:12:00,44.0,42.0,-100.00,NNE,20,14.0,17.0,91,-99.99,,,-99.99,,2013-04-16 12:12:00,
2013-04-16 07:22:00,44.0,42.0,-100.00,NNE,20,14.0,17.0,91,-99.99,,,-99.99,,2013-04-16 12:22:00,
2013-04-16 07:32:00,44.0,41.0,-100.00,NNE,25,12.0,18.0,89,-99.99,,,-99.99,,2013-04-16 12:32:00,
2013-04-16 07:42:00,44.0,40.0,-100.00,NNE,25,17.0,21.0,87,-99.99,,,-99.99,,2013-04-16 12:42:00,
2013-04-16 07:52:00,44.0,40.0,-100.00,NNE,20,14.0,17.0,87,-99.99,,,-99.99,,2013-04-16 12:52:00,
2013-04-16 08:02:00,44.0,40.0,-100.00,NNE,20,14.0,17.0,87,-99.99,,,-99.99,,2013-04-16 13:02:00,
2013-04-16 08:12:00,44.0,40.0,-100.00,NNE,15,14.0,17.0,86,-99.99,,,-99.99,,2013-04-16 13:12:00,
2013-04-16 08:22:00,45.0,40.0,-100.00,NE,40,14.0,18.0,84,-99.99,,,-99.99,,2013-04-16 13:22:00,
2013-04-16 08:32:00,45.0,40.0,-100.00,NE,40,14.0,18.0,84,-99.99,,,-99.99,,2013-04-16 13:32:00,
2013-04-16 08:42:00,45.0,40.0,-100.00,NNE,25,17.0,21.0,82,-99.99,,,-99.99,,2013-04-16 13:42:00,
2013-04-16 08:52:00,45.0,40.0,-100.00,NNE,30,16.0,18.0,82,-99.99,,,-99.99,,2013-04-16 13:52:00,
2013-04-16 09:02:00,45.0,40.0,-100.00,NNE,30,16.0,18.0,82,-99.99,,,-99.99,,2013-04-16 14:02:00,
2013-04-16 09:12:00,45.0,40.0,-100.00,NE,35,17.0,21.0,81,-99.99,,,-99.99,,2013-04-16 14:12:00,
2013-04-16 09:22:00,46.0,40.0,-100.00,ENE,65,10.0,14.0,80,-99.99,,,-99.99,,2013-04-16 14:22:00,
2013-04-16 09:32:00,46.0,40.0,-100.00,ENE,65,10.0,14.0,80,-99.99,,,-99.99,,2013-04-16 14:32:00,
2013-04-16 09:42:00,46.0,40.0,-100.00,NE,35,12.0,14.0,78,-99.99,,,-99.99,,2013-04-16 14:42:00,
2013-04-16 09:52:00,45.0,40.0,-100.00,North,5,12.0,14.0,82,-99.99,,,-99.99,,2013-04-16 14:52:00,
2013-04-16 10:02:00,45.0,40.0,-100.00,North,5,12.0,14.0,82,-99.99,,,-99.99,,2013-04-16 15:02:00,
2013-04-16 10:12:00,45.0,40.0,-100.00,NNE,30,6.0,9.0,84,-99.99,,,-99.99,,2013-04-16 15:12:00,
2013-04-16 10:22:00,45.0,41.0,-100.00,ENE,65,11.0,14.0,85,-99.99,,,-99.99,,2013-04-16 15:22:00,
2013-04-16 10:33:00,45.0,41.0,-100.00,ENE,65,11.0,14.0,85,-99.99,,,-99.99,,2013-04-16 15:33:00,
2013-04-16 10:43:00,46.0,42.0,-100.00,NNE,30,10.0,11.0,87,-99.99,,,-99.99,,2013-04-16 15:43:00,
2013-04-16 10:53:00,45.0,42.0,-100.00,NNE,30,14.0,17.0,88,-99.99,,,-99.99,,2013-04-16 15:53:00,
2013-04-16 11:03:00,45.0,42.0,-100.00,NNE,30,14.0,17.0,88,-99.99,,,-99.99,,2013-04-16 16:03:00,
2013-04-16 11:13:00,45.0,42.0,-100.00,NNW,345,12.0,16.0,89,-99.99,,,-99.99,,2013-04-16 16:13:00,
2013-04-16 11:23:00,45.0,43.0,-100.00,NNE,25,14.0,16.0,91,-99.99,,,-99.99,,2013-04-16 16:23:00,
2013-04-16 11:32:00,45.0,43.0,-100.00,NNE,25,14.0,16.0,91,-99.99,,,-99.99,,2013-04-16 16:32:00,
2013-04-16 11:42:00,45.0,43.0,-100.00,NNE,25,14.0,16.0,91,-99.99,,,-99.99,,2013-04-16 16:42:00,
2013-04-16 11:53:00,44.0,42.0,-100.00,NNW,345,14.0,16.0,92,-99.99,,,-99.99,,2013-04-16 16:53:00,
2013-04-16 12:02:00,44.0,42.0,-100.00,NNW,345,14.0,16.0,92,-99.99,,,-99.99,,2013-04-16 17:02:00,
2013-04-16 12:12:00,44.0,42.0,-100.00,NNW,345,14.0,16.0,92,-99.99,,,-99.99,,2013-04-16 17:12:00,
2013-04-16 12:22:00,44.0,42.0,-100.00,NE,35,4.0,8.0,93,-99.99,,,-99.99,,2013-04-16 17:22:00,
2013-04-16 12:32:00,44.0,42.0,-100.00,NE,35,4.0,8.0,93,-99.99,,,-99.99,,2013-04-16 17:32:00,
2013-04-16 12:43:00,44.0,42.0,-100.00,NE,35,4.0,8.0,93,-99.99,,,-99.99,,2013-04-16 17:43:00,
2013-04-16 13:43:00,45.0,43.0,-100.00,NNE,20,17.0,19.0,94,-99.99,,,-99.99,,2013-04-16 18:43:00,
2013-04-16 13:52:00,46.0,44.0,-100.00,NNE,15,18.0,23.0,92,-99.99,,,-99.99,,2013-04-16 18:52:00,
2013-04-16 14:02:00,46.0,44.0,-100.00,NNE,15,18.0,23.0,92,-99.99,,,-99.99,,2013-04-16 19:02:00,
2013-04-16 14:12:00,47.0,44.0,-100.00,NE,35,17.0,18.0,88,-99.99,,,-99.99,,2013-04-16 19:12:00,
2013-04-16 14:22:00,47.0,43.0,-100.00,NNE,30,17.0,21.0,86,-99.99,,,-99.99,,2013-04-16 19:22:00,
2013-04-16 14:32:00,47.0,43.0,-100.00,NNE,30,17.0,21.0,86,-99.99,,,-99.99,,2013-04-16 19:32:00,
2013-04-16 14:42:00,47.0,43.0,-100.00,NNE,25,14.0,19.0,85,-99.99,,,-99.99,,2013-04-16 19:42:00,
2013-04-16 14:52:00,48.0,43.0,-100.00,NE,40,18.0,21.0,82,-99.99,,,-99.99,,2013-04-16 19:52:00,
2013-04-16 15:02:00,48.0,43.0,-100.00,NE,40,18.0,21.0,82,-99.99,,,-99.99,,2013-04-16 20:02:00,
2013-04-16 15:12:00,48.0,43.0,-100.00,NE,40,18.0,21.0,82,-99.99,,,-99.99,,2013-04-16 20:12:00,
2013-04-16 15:22:00,47.0,42.0,-100.00,NE,50,12.0,16.0,82,-99.99,,,-99.99,,2013-04-16 20:22:00,
2013-04-16 15:42:00,47.0,44.0,-100.00,NE,50,14.0,17.0,88,-99.99,,,-99.99,,2013-04-16 20:42:00,
2013-04-16 15:52:00,47.0,43.0,-100.00,NE,45,14.0,16.0,86,-99.99,,,-99.99,,2013-04-16 20:52:00,
2013-04-16 16:02:00,47.0,43.0,-100.00,NE,45,14.0,16.0,86,-99.99,,,-99.99,,2013-04-16 21:02:00,
2013-04-16 16:12:00,47.0,42.0,-100.00,NNE,25,10.0,12.0,84,-99.99,,,-99.99,,2013-04-16 21:12:00,
2013-04-16 16:22:00,48.0,43.0,-100.00,NE,45,11.0,14.0,83,-99.99,,,-99.99,,2013-04-16 21:22:00,
2013-04-16 16:32:00,48.0,43.0,-100.00,NE,45,11.0,14.0,83,-99.99,,,-99.99,,2013-04-16 21:32:00,
2013-04-16 16:43:00,48.0,43.0,-100.00,ENE,60,12.0,16.0,82,-99.99,,,-99.99,,2013-04-16 21:43:00,
2013-04-16 16:53:00,48.0,43.0,-100.00,NE,35,11.0,12.0,82,-99.99,,,-99.99,,2013-04-16 21:53:00,
2013-04-16 17:03:00,48.0,43.0,-100.00,NE,35,11.0,12.0,82,-99.99,,,-99.99,,2013-04-16 22:03:00,
2013-04-16 17:13:00,49.0,43.0,-100.00,NE,40,11.0,14.0,81,-99.99,,,-99.99,,2013-04-16 22:13:00,
2013-04-16 17:22:00,49.0,44.0,-100.00,NE,40,10.0,12.0,82,-99.99,,,-99.99,,2013-04-16 22:22:00,
2013-04-16 17:33:00,49.0,44.0,-100.00,NE,40,10.0,12.0,82,-99.99,,,-99.99,,2013-04-16 22:33:00,
2013-04-16 17:42:00,49.0,44.0,-100.00,NE,40,9.0,11.0,82,-99.99,,,-99.99,,2013-04-16 22:42:00,
2013-04-16 17:52:00,49.0,43.0,-100.00,NE,50,10.0,14.0,81,-99.99,,,-99.99,,2013-04-16 22:52:00,
2013-04-16 18:02:00,49.0,43.0,-100.00,NE,50,10.0,14.0,81,-99.99,,,-99.99,,2013-04-16 23:02:00,
2013-04-16 18:12:00,49.0,43.0,-100.00,NE,40,11.0,14.0,79,-99.99,,,-99.99,,2013-04-16 23:12:00,
2013-04-16 18:22:00,49.0,43.0,-100.00,NNE,20,9.0,11.0,80,-99.99,,,-99.99,,2013-04-16 23:22:00,
2013-04-16 18:32:00,49.0,43.0,-100.00,NNE,20,9.0,11.0,80,-99.99,,,-99.99,,2013-04-16 23:32:00,
2013-04-16 18:42:00,49.0,43.0,-100.00,NE,50,11.0,14.0,81,-99.99,,,-99.99,,2013-04-16 23:42:00,
2013-04-16 18:52:00,49.0,44.0,-100.00,NE,45,9.0,11.0,82,-99.99,,,-99.99,,2013-04-16 23:52:00,
2013-04-16 19:02:00,49.0,44.0,-100.00,NE,45,9.0,11.0,82,-99.99,,,-99.99,,2013-04-17 00:02:00,
2013-04-16 19:12:00,49.0,44.0,-100.00,NE,45,9.0,11.0,82,-99.99,,,-99.99,,2013-04-17 00:12:00,
2013-04-16 19:22:00,49.0,43.0,-100.00,NE,45,10.0,14.0,81,-99.99,,,-99.99,,2013-04-17 00:22:00,
2013-04-16 19:32:00,49.0,43.0,-100.00,NE,45,10.0,14.0,81,-99.99,,,-99.99,,2013-04-17 00:32:00,
2013-04-16 19:42:00,50.0,44.0,-100.00,NE,50,10.0,11.0,79,-99.99,,,-99.99,,2013-04-17 00:42:00,
2013-04-16 19:52:00,49.0,43.0,-100.00,ENE,60,10.0,11.0,81,-99.99,,,-99.99,,2013-04-17 00:52:00,
2013-04-16 20:02:00,49.0,43.0,-100.00,ENE,60,10.0,11.0,81,-99.99,,,-99.99,,2013-04-17 01:02:00,
2013-04-16 20:12:00,49.0,43.0,-100.00,ENE,60,10.0,11.0,81,-99.99,,,-99.99,,2013-04-17 01:12:00,
2013-04-16 20:22:00,49.0,43.0,-100.00,NE,55,12.0,14.0,81,-99.99,,,-99.99,,2013-04-17 01:22:00,
2013-04-16 20:32:00,49.0,43.0,-100.00,NE,55,12.0,14.0,81,-99.99,,,-99.99,,2013-04-17 01:32:00,
2013-04-16 20:42:00,49.0,43.0,-100.00,NE,40,9.0,11.0,80,-99.99,,,-99.99,,2013-04-17 01:42:00,
2013-04-16 20:52:00,49.0,42.0,-100.00,NE,55,9.0,11.0,78,-99.99,,,-99.99,,2013-04-17 01:52:00,
2013-04-16 21:02:00,49.0,42.0,-100.00,NE,55,9.0,11.0,78,-99.99,,,-99.99,,2013-04-17 02:02:00,
2013-04-16 21:12:00,49.0,42.0,-100.00,NE,50,10.0,12.0,78,-99.99,,,-99.99,,2013-04-17 02:12:00,
2013-04-16 21:22:00,49.0,42.0,-100.00,NE,45,11.0,14.0,77,-99.99,,,-99.99,,2013-04-17 02:22:00,
2013-04-16 21:32:00,49.0,42.0,-100.00,NE,45,11.0,14.0,77,-99.99,,,-99.99,,2013-04-17 02:32:00,
2013-04-16 21:42:00,49.0,42.0,-100.00,NE,55,11.0,14.0,76,-99.99,,,-99.99,,2013-04-17 02:42:00,
2013-04-16 21:52:00,49.0,42.0,-100.00,ENE,60,11.0,14.0,78,-99.99,,,-99.99,,2013-04-17 02:52:00,
2013-04-16 22:02:00,49.0,42.0,-100.00,ENE,60,11.0,14.0,78,-99.99,,,-99.99,,2013-04-17 03:02:00,
2013-04-16 22:12:00,49.0,43.0,-100.00,ENE,60,12.0,14.0,79,-99.99,,,-99.99,,2013-04-17 03:12:00,
2013-04-16 22:22:00,49.0,43.0,-100.00,ENE,65,9.0,12.0,79,-99.99,,,-99.99,,2013-04-17 03:22:00,
2013-04-16 22:33:00,49.0,43.0,-100.00,ENE,65,9.0,12.0,79,-99.99,,,-99.99,,2013-04-17 03:33:00,
2013-04-16 22:42:00,49.0,43.0,-100.00,ENE,65,12.0,14.0,79,-99.99,,,-99.99,,2013-04-17 03:42:00,
2013-04-16 22:53:00,49.0,42.0,-100.00,ENE,65,10.0,12.0,78,-99.99,,,-99.99,,2013-04-17 03:53:00,
2013-04-16 23:03:00,49.0,42.0,-100.00,ENE,65,10.0,12.0,78,-99.99,,,-99.99,,2013-04-17 04:03:00,
2013-04-16 23:13:00,49.0,42.0,-100.00,ENE,65,10.0,12.0,78,-99.99,,,-99.99,,2013-04-17 04:13:00,
2013-04-16 23:22:00,50.0,44.0,-100.00,ENE,75,11.0,14.0,79,-99.99,,,-99.99,,2013-04-17 04:22:00,
2013-04-16 23:32:00,50.0,40.0,-100.00,ENE,70,17.0,21.0,68,-99.99,,,-99.99,,2013-04-17 04:32:00,
2013-04-16 23:33:00,50.0,44.0,-100.00,ENE,75,11.0,14.0,79,-99.99,,,-99.99,,2013-04-17 04:33:00,
2013-04-16 23:42:00,50.0,44.0,-100.00,East,80,14.0,16.0,79,-99.99,,,-99.99,,2013-04-17 04:42:00,
2013-04-16 23:52:00,50.0,41.0,-100.00,East,85,18.0,25.0,70,-99.99,,,-99.99,,2013-04-17 04:52:00,